WAT4046 KDTW-KACY

Flight info

Callsign WAT4046
Flight time N/A
Altitude 37000
Route PAVYL3 ESSBE CXR REC HAR MXE VCN ACY
Aircraft A320/M-SDE3FGHIRWY/LB1

Departure

Time 2026-05-04 05:43
Airport Detroit Metropolitan Wayne County Airport (KDTW)

Arrival

Time N/A
Airport Atlantic City International Airport (KACY)
Time Latitude Longitude Altitude Speed Heading
2026-05-04 05:35 42.21941 -83.34762 650 ft 4 kts 316°
2026-05-04 05:36 42.21922 -83.34736 650 ft 4 kts 312°
2026-05-04 05:36 42.21903 -83.34710 650 ft 4 kts 323°
2026-05-04 05:36 42.21888 -83.34697 650 ft 4 kts 340°
2026-05-04 05:36 42.21866 -83.34695 650 ft 2 kts 27°
2026-05-04 05:37 42.21860 -83.34699 651 ft 0 kts 28°
2026-05-04 05:39 42.21876 -83.34687 651 ft 4 kts 28°
2026-05-04 05:39 42.21877 -83.34662 651 ft 4 kts 118°
2026-05-04 05:40 42.21847 -83.34572 650 ft 7 kts 99°
2026-05-04 05:40 42.21843 -83.34501 651 ft 8 kts 89°
2026-05-04 05:40 42.21844 -83.34413 651 ft 11 kts 91°
2026-05-04 05:41 42.21857 -83.34288 649 ft 23 kts 66°
2026-05-04 05:41 42.21848 -83.34061 649 ft 22 kts 90°
2026-05-04 05:41 42.21850 -83.33866 649 ft 22 kts 86°
2026-05-04 05:41 42.21853 -83.33677 648 ft 20 kts 89°
2026-05-04 05:42 42.21784 -83.33543 650 ft 16 kts 183°
2026-05-04 05:42 42.21665 -83.33627 648 ft 39 kts 208°
2026-05-04 05:42 42.21161 -83.33995 652 ft 121 kts 208°
2026-05-04 05:42 42.20243 -83.34679 726 ft 173 kts 208°
2026-05-04 05:43 42.19193 -83.35420 1476 ft 168 kts 205°
2026-05-04 05:43 42.18150 -83.36065 2141 ft 165 kts 195°
2026-05-04 05:43 42.16978 -83.36209 2586 ft 178 kts 181°
2026-05-04 05:45 42.05562 -83.35198 6753 ft 277 kts 161°
2026-05-04 05:45 42.03971 -83.33669 6964 ft 289 kts 133°
2026-05-04 05:47 42.01867 -83.14774 7788 ft 303 kts 79°
2026-05-04 05:47 42.02262 -83.11977 8613 ft 308 kts 79°
2026-05-04 05:47 42.02719 -83.09150 8925 ft 310 kts 71°
2026-05-04 05:48 42.03412 -83.06391 9646 ft 312 kts 70°
2026-05-04 05:48 42.04116 -83.03604 10349 ft 320 kts 70°
2026-05-04 05:48 42.04849 -83.00708 10586 ft 343 kts 70°
2026-05-04 05:48 42.05642 -82.97572 10815 ft 364 kts 70°
2026-05-04 05:49 42.06466 -82.94308 11371 ft 372 kts 70°
2026-05-04 05:49 42.07302 -82.90993 11999 ft 377 kts 69°
2026-05-04 05:49 42.08149 -82.87629 12626 ft 382 kts 69°
2026-05-04 05:49 42.09006 -82.84227 13244 ft 386 kts 69°
2026-05-04 05:51 42.14391 -82.59184 17287 ft 416 kts 88°
2026-05-04 05:51 42.14363 -82.55269 17809 ft 420 kts 89°
2026-05-04 05:52 42.14333 -82.51317 18339 ft 423 kts 89°
2026-05-04 05:52 42.14308 -82.47341 18857 ft 427 kts 89°
2026-05-04 05:52 42.14094 -82.43321 19357 ft 433 kts 97°
2026-05-04 05:52 42.13596 -82.39308 19862 ft 436 kts 98°
2026-05-04 05:53 42.13088 -82.35259 20339 ft 440 kts 98°
2026-05-04 05:54 42.09381 -82.05935 23268 ft 466 kts 97°
2026-05-04 05:55 42.08829 -82.01620 23674 ft 470 kts 97°
2026-05-04 05:55 42.08272 -81.97269 24057 ft 473 kts 97°
2026-05-04 05:55 42.07711 -81.92892 24429 ft 476 kts 97°
2026-05-04 05:55 42.07139 -81.88484 24789 ft 480 kts 99°
2026-05-04 05:56 42.06252 -81.84140 25135 ft 485 kts 109°
2026-05-04 05:56 42.04846 -81.79996 25470 ft 489 kts 120°
2026-05-04 05:56 42.02967 -81.76184 25800 ft 490 kts 130°
2026-05-04 05:56 42.00673 -81.72797 26135 ft 489 kts 140°
2026-05-04 05:57 41.98116 -81.69773 26455 ft 491 kts 143°
2026-05-04 05:57 41.95527 -81.66759 26787 ft 494 kts 143°
2026-05-04 05:57 41.92917 -81.63735 27111 ft 497 kts 143°
2026-05-04 05:57 41.90289 -81.60695 27422 ft 500 kts 143°
2026-05-04 05:58 41.87645 -81.57645 27731 ft 503 kts 143°
2026-05-04 05:58 41.84983 -81.54572 28050 ft 506 kts 143°
2026-05-04 05:58 41.82309 -81.51481 28367 ft 509 kts 143°
2026-05-04 05:58 41.79618 -81.48367 28672 ft 512 kts 143°
2026-05-04 05:59 41.76914 -81.45240 28976 ft 515 kts 143°
2026-05-04 05:59 41.74230 -81.42139 29246 ft 518 kts 143°
2026-05-04 05:59 41.71494 -81.38984 29531 ft 520 kts 143°
2026-05-04 05:59 41.68704 -81.35774 29815 ft 523 kts 143°
2026-05-04 06:00 41.65970 -81.32637 30097 ft 526 kts 143°
2026-05-04 06:00 41.63193 -81.29456 30513 ft 525 kts 143°
2026-05-04 06:00 41.60419 -81.26280 30901 ft 526 kts 143°
2026-05-04 06:00 41.57637 -81.23103 31254 ft 527 kts 143°
2026-05-04 06:01 41.54868 -81.19881 31583 ft 530 kts 140°
2026-05-04 06:01 41.52347 -81.16264 31910 ft 535 kts 130°
2026-05-04 06:03 41.39808 -80.85617 34285 ft 541 kts 116°
2026-05-04 06:03 41.38067 -80.81173 34644 ft 541 kts 116°
2026-05-04 06:05 41.25977 -80.50348 37059 ft 532 kts 117°
2026-05-04 06:05 41.22551 -80.41681 37129 ft 528 kts 117°
2026-05-04 06:06 41.19145 -80.33055 37139 ft 527 kts 117°
2026-05-04 06:06 41.15736 -80.24455 37137 ft 527 kts 118°
2026-05-04 06:07 41.12305 -80.15864 37135 ft 527 kts 118°
2026-05-04 06:07 41.08876 -80.07277 37138 ft 527 kts 118°
2026-05-04 06:08 41.05438 -79.98683 37139 ft 527 kts 118°
2026-05-04 06:08 41.02016 -79.90182 37146 ft 526 kts 118°
2026-05-04 06:09 40.98565 -79.81644 37157 ft 525 kts 118°
2026-05-04 06:11 40.84685 -79.47418 33059 ft 540 kts 117°
2026-05-04 06:11 40.82905 -79.43052 32373 ft 540 kts 117°
2026-05-04 06:13 40.70474 -79.12794 27362 ft 531 kts 118°
2026-05-04 06:14 40.59907 -78.87313 25141 ft 527 kts 118°
2026-05-04 06:14 40.58142 -78.83091 25144 ft 527 kts 118°
2026-05-04 06:15 40.56375 -78.78866 25137 ft 527 kts 118°
2026-05-04 06:15 40.54839 -78.74512 25135 ft 525 kts 107°
2026-05-04 06:15 40.53961 -78.69881 25125 ft 521 kts 97°
2026-05-04 06:15 40.53318 -78.65190 25129 ft 521 kts 97°
2026-05-04 06:16 40.52675 -78.60505 25125 ft 522 kts 97°
2026-05-04 06:16 40.52029 -78.55813 25125 ft 522 kts 97°
2026-05-04 06:16 40.51380 -78.51125 25128 ft 522 kts 97°
2026-05-04 06:16 40.50726 -78.46434 25121 ft 522 kts 97°
2026-05-04 06:17 40.50067 -78.41749 25117 ft 521 kts 97°
2026-05-04 06:17 40.49403 -78.37065 25126 ft 521 kts 97°
2026-05-04 06:17 40.48735 -78.32378 25132 ft 521 kts 97°
2026-05-04 06:17 40.48072 -78.27706 25131 ft 521 kts 97°
2026-05-04 06:18 40.47402 -78.23031 25128 ft 520 kts 97°
2026-05-04 06:18 40.46732 -78.18367 25129 ft 520 kts 97°
2026-05-04 06:18 40.46062 -78.13699 25125 ft 520 kts 97°
2026-05-04 06:20 40.41350 -77.81121 25146 ft 520 kts 97°
2026-05-04 06:20 40.40664 -77.76464 25147 ft 520 kts 97°
2026-05-04 06:21 40.38133 -77.59357 25151 ft 520 kts 97°
2026-05-04 06:21 40.37443 -77.54704 25168 ft 520 kts 97°
2026-05-04 06:22 40.36752 -77.50048 25171 ft 519 kts 98°
2026-05-04 06:22 40.36058 -77.45398 25175 ft 519 kts 97°
2026-05-04 06:25 40.24571 -76.85874 25202 ft 522 kts 107°
2026-05-04 06:25 40.23361 -76.81391 25201 ft 522 kts 107°
2026-05-04 06:26 40.22152 -76.76921 25201 ft 521 kts 107°
2026-05-04 06:26 40.20942 -76.72447 25202 ft 521 kts 107°
2026-05-04 06:26 40.19732 -76.67979 25202 ft 521 kts 107°
2026-05-04 06:26 40.18519 -76.63516 25201 ft 520 kts 107°
2026-05-04 06:27 40.13655 -76.45695 25202 ft 521 kts 106°
2026-05-04 06:28 40.12436 -76.41239 25202 ft 521 kts 106°
2026-05-04 06:28 40.11216 -76.36786 25202 ft 521 kts 107°
2026-05-04 06:28 40.09993 -76.32329 25201 ft 521 kts 107°
2026-05-04 06:28 40.08767 -76.27871 25201 ft 521 kts 107°
2026-05-04 06:29 40.07537 -76.23424 25202 ft 521 kts 107°
2026-05-04 06:29 40.06305 -76.18975 25202 ft 521 kts 107°
2026-05-04 06:29 40.05071 -76.14518 25202 ft 521 kts 107°
2026-05-04 06:29 40.03851 -76.10134 25202 ft 521 kts 107°
2026-05-04 06:30 40.02617 -76.05687 25199 ft 522 kts 106°
2026-05-04 06:30 40.01369 -76.01179 25191 ft 521 kts 107°
2026-05-04 06:30 40.00133 -75.96729 25193 ft 521 kts 107°
2026-05-04 06:30 39.98902 -75.92326 25172 ft 508 kts 107°
2026-05-04 06:31 39.97707 -75.88081 24921 ft 493 kts 107°
2026-05-04 06:31 39.96535 -75.83915 24415 ft 485 kts 106°
2026-05-04 06:31 39.95383 -75.79812 23835 ft 479 kts 106°
2026-05-04 06:31 39.94245 -75.75761 23245 ft 474 kts 106°
2026-05-04 06:32 39.93119 -75.71752 22664 ft 469 kts 106°
2026-05-04 06:33 39.81299 -75.47510 18855 ft 439 kts 123°
2026-05-04 06:34 39.79560 -75.44268 18320 ft 435 kts 123°
2026-05-04 06:34 39.77832 -75.41053 17798 ft 431 kts 123°
2026-05-04 06:34 39.76127 -75.37891 17259 ft 427 kts 123°
2026-05-04 06:34 39.74431 -75.34750 16728 ft 422 kts 123°
2026-05-04 06:35 39.72750 -75.31642 16170 ft 419 kts 123°
2026-05-04 06:36 39.61388 -75.10707 12271 ft 391 kts 122°
2026-05-04 06:37 39.59825 -75.07843 11716 ft 387 kts 122°
2026-05-04 06:37 39.58313 -75.05068 11507 ft 374 kts 122°
2026-05-04 06:37 39.56841 -75.02374 11379 ft 359 kts 122°
2026-05-04 06:37 39.55535 -74.99701 11251 ft 342 kts 110°
2026-05-04 06:38 39.54883 -74.96839 11129 ft 322 kts 91°
2026-05-04 06:38 39.54895 -74.94031 10952 ft 302 kts 75°
2026-05-04 06:40 39.59935 -74.77886 7182 ft 262 kts 62°
2026-05-04 06:40 39.60641 -74.75725 6634 ft 259 kts 62°
2026-05-04 06:40 39.61337 -74.73594 6086 ft 255 kts 62°
2026-05-04 06:40 39.62024 -74.71484 5568 ft 252 kts 63°
2026-05-04 06:41 39.62700 -74.69405 5034 ft 248 kts 63°
2026-05-04 06:41 39.63366 -74.67352 4516 ft 245 kts 63°
2026-05-04 06:41 39.63921 -74.65284 4001 ft 243 kts 74°
2026-05-04 06:41 39.64080 -74.63097 3475 ft 245 kts 88°
2026-05-04 06:42 39.63812 -74.60919 2978 ft 246 kts 102°
2026-05-04 06:42 39.63192 -74.58922 2827 ft 230 kts 108°
2026-05-04 06:42 39.62576 -74.57067 2609 ft 217 kts 108°
2026-05-04 06:44 39.56493 -74.52746 1122 ft 142 kts 192°
2026-05-04 06:44 39.55523 -74.53034 1118 ft 144 kts 192°
2026-05-04 06:44 39.54551 -74.53322 1116 ft 144 kts 192°
2026-05-04 06:45 39.53574 -74.53612 1112 ft 144 kts 192°
2026-05-04 06:45 39.52599 -74.53902 1111 ft 144 kts 192°
2026-05-04 06:45 39.51622 -74.54193 1110 ft 144 kts 192°
2026-05-04 06:45 39.50674 -74.54599 1092 ft 145 kts 206°
2026-05-04 06:46 39.49779 -74.55211 853 ft 144 kts 208°
2026-05-04 06:46 39.48894 -74.55817 661 ft 143 kts 208°
2026-05-04 06:46 39.48021 -74.56415 465 ft 142 kts 208°
2026-05-04 06:46 39.47155 -74.57010 277 ft 141 kts 208°